Torna al catalogo

SKYNET 5C

AttivoMilitareGEO
NORAD 33055·PAYLOAD·🇬🇧 United Kingdom

Lanciato Jun 12, 2008 da Guiana Space Centre

Loading…

TLE

AggiornatoSource: Space-Track

Epoca: Sep 14, 2026, 10:17 UTC

1 33055U 08030A   26257.42900451 -.00000147  00000-0  00000-0 0  9997
2 33055   4.0116  75.9193 0004805 107.2725 306.8792  1.00271758 66856

Traccia SKYNET 5C in tempo reale con AllMySat

Download on the App Store